Theta_e
272 272 271 271 271 272 271 271 271 271 271 271 271 271 271 272 273 273 273 273 274 274 274 275 275 275 275 275 276 277 277 278 278 278 278 278 278 278 278 279 279 280
271 271 272 271 271 272 271 271 271 270 270 270 271 271 272 272 272 272 272 273 273 273 274 274 274 275 276 276 277 277 276 277 277 278 277 277 278 278 278 279 279 280
270 270 270 270 270 270 270 271 271 270 270 270 271 271 271 272 271 272 272 272 272 272 273 273 273 273 273 274 276 276 276 276 275 276 277 277 278 278 278 279 280 280
270 270 270 270 270 270 270 270 270 270 271 270 270 271 271 271 271 271 271 272 271 271 272 272 272 273 273 273 273 274 275 276 276 277 277 277 278 278 278 279 279 280
270 270 270 270 270 270 270 270 270 270 270 270 270 271 271 270 270 270 270 271 271 271 270 271 272 271 272 272 273 273 274 274 275 276 276 275 277 277 278 278 278 278
269 270 270 270 270 270 269 269 269 270 270 270 270 271 270 270 270 270 270 270 270 270 270 270 271 271 271 272 272 273 273 273 273 275 275 275 276 276 277 278 278 278
269 269 269 270 269 269 269 269 269 270 269 270 270 270 270 270 270 270 270 270 270 270 270 270 270 270 271 271 271 272 272 273 273 273 273 273 274 274 276 277 277 278
268 269 269 269 269 269 269 269 269 269 269 270 269 270 270 270 270 270 270 270 270 270 270 270 270 271 271 272 271 272 272 272 273 273 273 273 273 273 276 278 278 278
268 268 268 268 268 268 268 269 269 269 269 269 269 269 270 270 270 270 270 270 270 270 270 270 270 271 271 271 271 271 271 272 273 273 272 272 273 275 276 277 277 277
267 268 268 268 267 268 268 268 268 269 269 269 269 269 269 270 270 270 270 270 269 269 269 270 270 270 270 270 270 270 271 272 272 273 273 274 275 275 276 276 276 276
267 267 267 267 267 267 268 268 268 268 269 268 269 269 269 269 270 270 269 269 269 269 269 270 270 270 270 271 271 271 271 271 272 272 272 273 274 275 275 275 276 276
266 267 267 267 267 267 267 267 268 268 268 268 269 268 269 269 269 269 269 269 269 269 270 270 270 271 271 271 271 271 271 271 271 271 272 272 273 274 275 275 275 276
266 266 266 267 267 267 267 267 267 267 268 268 268 268 268 268 269 269 269 269 269 270 270 270 270 270 270 271 271 271 270 270 270 271 271 272 272 273 274 275 275 276
266 266 266 266 267 267 267 267 267 267 267 268 268 268 268 268 268 269 269 270 270 270 270 270 270 270 270 271 270 270 270 270 270 270 271 271 272 273 274 274 274 275
266 266 266 266 266 266 266 266 266 267 267 267 267 267 268 268 269 269 269 269 270 270 270 270 270 270 270 270 270 269 270 269 270 270 271 271 271 272 273 273 274 275
265 266 266 266 266 265 266 266 266 266 266 267 267 267 268 268 268 269 269 269 269 269 269 270 270 270 271 273 273 270 270 270 270 270 271 271 271 271 272 273 274 275
265 265 265 265 265 265 265 265 266 266 266 266 267 267 267 268 268 268 268 269 269 269 269 269 270 270 273 274 274 275 273 271 271 271 271 271 271 271 272 273 274 276
264 264 264 264 264 264 264 265 265 265 265 266 266 266 267 268 268 268 268 269 269 269 269 269 270 272 274 275 275 276 276 273 273 272 272 273 273 273 273 274 275 275
264 263 263 263 263 264 264 264 264 265 265 265 265 266 267 267 267 268 268 269 269 269 269 270 270 273 275 276 276 277 277 276 274 274 273 273 274 274 274 275 275 276
263 263 263 263 263 264 264 264 264 264 265 265 266 267 267 267 268 268 269 269 269 269 269 270 270 273 275 276 277 278 278 278 276 275 275 275 275 275 275 275 276 276
263 262 262 262 263 263 263 263 264 264 265 265 266 267 267 267 268 269 269 270 270 270 271 271 271 275 277 278 279 279 279 279 277 276 276 276 276 276 276 276 276 277
262 262 262 262 262 262 262 263 263 264 264 266 267 267 268 269 270 270 270 270 271 271 271 271 273 276 278 278 279 280 281 280 279 277 277 276 276 276 276 277 277 277
262 261 261 261 262 262 262 263 263 264 265 266 266 267 268 269 269 270 271 271 271 272 272 272 273 275 277 279 280 281 281 280 280 279 278 277 276 277 277 277 277 278
262 261 261 262 262 262 262 263 264 265 266 267 266 267 267 268 269 270 271 272 272 272 273 273 273 276 278 279 280 281 281 280 280 280 279 277 277 277 277 278 278 279
262 262 262 262 262 262 263 263 264 265 266 267 267 268 268 269 270 270 271 272 273 273 274 274 274 276 278 279 280 281 281 280 280 280 280 279 278 277 278 278 278 279
262 262 262 262 262 262 263 264 265 265 267 267 268 268 269 270 270 271 271 272 273 274 274 275 275 276 277 279 280 281 281 280 280 279 279 279 279 278 278 278 278 279
Wind_Speed
12 13 14 13 13 13 13 13 12 12 12 11 12 12 12 12 13 14 15 15 15 14 15 15 14 15 13 13 13 12 11 13 10 9 10 11 11 12 11 13 14 12
15 16 15 14 12 12 12 12 13 12 12 12 12 12 13 14 15 15 15 14 13 13 13 12 11 11 11 11 12 12 12 13 12 9 10 13 12 12 13 15 14 13
17 16 15 15 13 14 15 14 14 14 14 14 15 14 14 14 14 13 12 13 13 14 13 13 13 13 11 12 12 13 13 15 13 12 12 13 12 13 13 13 12 14
16 15 14 13 13 14 14 14 13 13 13 13 13 13 13 13 14 14 14 15 14 14 15 16 14 13 13 12 11 12 13 13 12 12 12 11 10 11 12 11 12 13
15 15 14 14 14 14 14 14 14 14 14 14 14 14 14 14 14 14 14 14 14 15 14 15 16 15 14 13 13 13 14 13 14 13 13 14 13 12 12 12 13 13
14 14 14 14 14 14 14 15 15 15 15 15 15 14 14 15 14 15 15 15 14 15 15 13 15 14 14 14 13 14 14 13 13 14 15 15 14 13 11 12 13 14
16 15 15 14 15 15 15 15 14 14 14 14 14 14 14 15 15 15 15 15 15 15 15 14 14 14 13 13 13 14 14 15 16 16 16 14 14 14 14 14 15 15
16 15 14 14 16 15 15 15 14 14 14 14 15 15 14 15 15 14 14 15 14 15 15 14 13 14 13 12 13 14 15 13 14 15 16 15 13 14 14 11 9 13
16 15 15 16 16 15 15 15 15 15 14 15 14 14 14 14 14 14 15 15 15 15 14 13 13 12 12 11 12 13 14 14 13 14 15 15 14 14 13 12 10 11
16 15 16 16 16 14 16 16 15 15 14 14 14 13 14 14 14 15 15 15 15 15 14 15 15 14 14 13 13 12 11 11 11 11 11 11 11 11 11 9 9 10
17 16 16 16 16 15 16 16 15 15 13 14 14 14 14 14 14 14 14 14 14 14 15 15 15 15 15 15 14 14 13 12 12 11 11 11 11 11 11 10 11 11
16 16 16 17 16 16 16 16 15 15 15 13 14 14 14 14 14 13 13 14 15 15 15 15 15 15 15 15 15 15 15 14 13 12 12 11 11 11 11 10 10 11
16 16 16 16 15 15 15 15 15 15 15 15 14 14 14 14 14 14 14 14 15 15 15 15 15 15 15 15 15 15 14 14 14 13 12 11 11 12 12 11 11 11
16 16 16 15 15 15 15 15 15 15 14 14 14 14 14 14 14 14 14 13 14 14 14 14 14 15 15 15 14 14 13 13 13 12 11 11 12 12 12 11 11 11
15 15 14 15 16 16 16 16 15 15 15 14 14 13 13 13 13 14 14 14 14 14 14 14 13 13 13 13 13 14 13 14 14 13 12 12 11 12 11 11 11 12
16 16 16 16 16 16 16 16 15 15 14 14 14 14 14 13 13 13 13 13 13 14 13 13 13 12 15 21 20 14 12 12 12 12 11 11 11 12 12 11 12 12
16 16 16 16 16 15 15 16 16 14 14 15 15 14 14 13 12 13 12 12 13 12 13 12 12 12 20 21 22 24 18 13 12 11 11 11 11 12 11 11 11 11
16 16 16 16 16 16 16 15 15 14 14 14 14 15 14 12 12 12 12 12 11 12 12 12 12 17 22 22 22 22 20 14 13 12 12 11 12 12 11 11 11 11
16 16 16 16 16 16 16 15 14 14 14 14 14 14 13 12 12 12 12 11 11 11 12 12 12 17 21 22 21 21 21 18 13 13 13 13 12 12 12 11 11 10
16 16 16 17 16 16 15 15 14 14 14 13 13 13 12 13 12 13 12 11 11 11 11 11 12 17 20 21 20 20 20 18 13 13 14 14 14 13 12 12 12 11
16 16 16 16 17 16 16 15 14 14 14 13 12 12 12 12 12 12 11 11 11 10 9 10 10 17 19 19 18 19 21 19 12 13 13 14 14 14 14 13 13 12
16 16 16 16 16 16 16 16 15 14 14 13 12 12 11 11 11 11 12 12 11 10 10 11 11 17 17 17 18 17 18 11 12 13 14 15 13 13 14 13 13 12
16 17 17 16 16 16 15 15 15 16 14 12 12 12 12 12 12 11 11 11 12 11 11 11 12 14 17 17 17 17 13 9 7 9 12 13 14 13 12 13 12 13
16 16 16 16 15 16 16 15 15 13 13 12 12 13 13 13 12 13 12 10 11 12 10 11 12 15 18 18 18 16 13 8 7 8 7 10 10 11 10 11 13 19
15 15 16 16 15 16 15 15 14 13 13 12 11 11 12 12 12 11 12 12 10 10 15 14 11 13 17 18 17 16 12 7 7 6 6 6 8 8 9 10 10 13
15 16 15 15 16 16 15 15 13 12 13 12 12 11 11 11 11 11 13 12 12 11 10 9 9 10 12 17 16 15 13 8 6 6 5 3 5 7 8 9 10 10
Wind_Direction
325 319 314 310 305 301 301 303 302 300 297 293 289 288 286 286 286 284 281 280 280 277 273 272 268 264 262 265 264 262 261 260 260 258 259 258 258 257 255 252 252 254
319 315 311 308 303 302 301 301 301 298 294 291 288 287 286 284 283 281 278 276 275 276 280 282 287 288 282 269 264 261 262 262 263 263 265 263 261 259 255 252 253 253
316 315 313 308 304 303 302 300 297 293 290 288 287 285 286 286 287 285 281 277 276 276 275 276 278 275 274 272 269 263 262 263 266 265 264 262 260 259 258 256 252 250
320 319 316 311 308 304 302 301 299 297 295 292 290 290 289 286 284 281 278 275 274 273 272 271 271 270 266 265 262 261 262 263 264 266 264 262 260 260 257 253 250 250
319 318 314 311 307 304 303 300 299 298 295 293 291 288 286 284 283 282 279 277 275 274 273 271 266 266 264 262 260 260 259 260 259 257 257 258 255 254 256 256 255 254
318 316 314 312 310 308 306 303 301 299 297 294 292 291 288 286 283 281 279 277 276 275 275 273 272 268 264 259 258 259 260 259 258 257 257 256 257 255 255 254 251 248
320 319 317 314 313 310 307 304 302 300 298 296 294 289 287 285 284 282 281 279 277 275 274 272 271 269 264 259 253 254 255 258 259 257 256 257 257 259 258 255 253 252
321 320 319 317 314 310 306 305 303 302 300 298 294 292 288 286 284 283 281 279 278 276 273 270 269 268 265 261 259 257 256 254 257 257 256 257 256 254 251 256 266 264
322 321 320 317 314 312 310 310 308 305 303 298 296 294 291 288 286 283 281 278 276 275 273 271 270 268 264 258 256 257 257 256 255 253 252 249 244 244 247 257 270 279
322 321 318 318 317 316 314 312 310 307 304 301 298 296 294 290 287 284 281 278 276 274 270 268 266 265 265 265 265 266 271 269 259 256 259 259 256 254 258 266 268 273
322 321 319 318 317 315 314 313 311 308 305 303 300 296 293 290 287 285 281 278 275 272 269 267 265 263 262 261 259 258 260 263 265 266 267 270 269 266 268 267 266 269
321 320 319 318 316 314 313 312 310 307 305 301 299 297 295 292 288 284 281 277 274 273 270 269 267 265 263 261 259 257 256 258 259 260 261 261 263 263 261 262 266 269
321 320 319 317 316 314 312 310 308 306 304 301 299 296 294 292 287 285 281 277 274 271 268 267 266 263 260 258 257 256 255 257 259 256 256 256 257 258 257 258 260 265
321 318 317 315 314 313 311 309 308 305 303 301 299 296 293 290 287 284 281 278 274 271 268 266 263 261 258 256 254 254 253 253 253 253 252 254 255 255 254 255 258 262
318 318 316 314 314 313 311 309 307 306 304 301 298 294 292 288 286 283 281 278 274 270 267 264 262 259 256 252 251 249 248 249 250 250 251 254 254 253 250 250 255 257
319 317 315 315 313 313 312 310 310 308 304 301 299 295 292 289 285 282 278 275 273 269 266 263 260 256 252 250 246 244 242 243 246 248 248 248 251 253 252 248 249 250
319 317 316 315 313 311 311 310 309 308 306 302 300 297 294 292 288 284 278 273 270 267 264 260 256 253 253 253 252 249 245 242 243 247 247 246 246 247 250 248 246 244
319 318 316 315 314 312 310 308 305 303 303 301 300 297 295 292 286 279 276 274 269 263 261 259 256 256 257 257 256 254 249 243 241 244 246 245 243 242 244 245 245 244
318 318 316 315 314 312 310 308 307 303 300 299 297 296 293 289 283 281 276 273 269 267 263 262 259 260 262 261 259 257 254 247 239 237 242 243 242 241 241 241 240 242
319 318 316 314 313 312 310 307 304 301 300 298 296 297 294 291 289 284 280 272 265 262 262 259 259 263 265 264 263 261 256 249 240 237 235 238 240 239 239 239 237 237
318 316 314 313 312 311 311 307 304 303 302 302 301 301 300 298 296 297 291 282 275 268 266 269 263 271 276 276 272 263 254 246 238 235 234 234 234 235 237 238 237 236
316 315 313 312 311 311 309 308 307 306 306 306 305 303 301 297 295 294 293 293 290 286 284 284 284 285 287 288 288 287 287 268 233 227 229 229 227 226 231 235 236 235
315 313 312 311 311 310 309 310 311 311 309 308 307 307 305 304 303 301 300 297 295 294 292 290 291 286 288 291 292 293 293 290 272 231 226 225 223 220 222 230 233 232
313 311 310 309 310 308 308 308 307 305 305 308 306 307 306 305 306 306 306 299 294 291 289 291 290 288 290 294 293 293 295 294 291 296 258 219 221 215 215 223 230 232
311 310 308 308 307 304 304 305 306 305 304 304 301 300 297 302 303 303 305 303 291 284 284 287 283 284 287 291 295 298 301 295 295 293 295 229 219 213 211 220 227 230
310 309 307 306 305 302 301 300 300 301 304 306 304 302 301 301 302 303 298 297 295 286 279 270 273 280 282 287 293 297 298 297 289 287 295 296 234 222 213 214 221 224